User: anonymous   Login
Location: Unspecified
(0.0000°N, 0.0000°E)
Time: 00:26:49
(UTC+01:00)
Language:

Cosmos 1943 Rocket - Orbit

View from above orbital plane
View from above orbital plane
View from above satellite
View from above satellite

Ground track
Ground track

The orbit data is extracted from the following two-line orbital elements,

1 19120U 88039B   17054.61108901 -.00000063  00000-0 -71217-5 0  9998
2 19120  71.0140 204.9007 0021894 356.3157   3.7803 14.19165885490275
Epoch (UTC): 23 February 2017 14:39:58
Eccentricity: 0.0021894
inclination: 71.0140°
perigee height: 812 km
apogee height: 844 km
right ascension of ascending node: 204.9007°
argument of perigee: 356.3157°
revolutions per day: 14.19165885
mean anomaly at epoch: 3.7803°
orbit number at epoch: 49027

The dashed part of the orbit path shows where the satellite is in the earth's shadow,  

DLR